This is the latest recevied weather packets stored in our database for station/object K5FEP. If no packets are shown the sender has not sent any weather packets the latest 10 day(s).
| Time | Temp. | Humidity | Pressure | Rain* | Wind** | Luminosity | Snow |
|---|---|---|---|---|---|---|---|
| 1777320607 | 21.67° C | 31% | 1021.7 hPa | 0 mm | - | 676 W/m² | - |
| 1777320304 | 21.67° C | 31% | 1021.7 hPa | 0 mm | - | 693 W/m² | - |
| 1777320000 | 21.67° C | 33% | 1021.6 hPa | 0 mm | - | 711 W/m² | - |
| 1777319698 | 21.11° C | 31% | 1021.7 hPa | 0 mm | - | 716 W/m² | - |
| 1777319394 | 21.67° C | 35% | 1021.7 hPa | 0 mm | - | 723 W/m² | - |
| 1777319091 | 21.11° C | 36% | 1021.7 hPa | 0 mm | - | 738 W/m² | - |
| 1777318789 | 21.11° C | 34% | 1022 hPa | 0 mm | - | 762 W/m² | - |
| 1777318484 | 21.11° C | 33% | 1022 hPa | 0 mm | - | 778 W/m² | - |
| 1777318182 | 21.11° C | 33% | 1021.6 hPa | 0 mm | - | 803 W/m² | - |
| 1777317879 | 21.11° C | 33% | 1021.6 hPa | 0 mm | - | 803 W/m² | - |
| 1777317575 | 21.11° C | 35% | 1022 hPa | 0 mm | - | 815 W/m² | - |
| 1777317273 | 21.11° C | 34% | 1021.8 hPa | 0 mm | - | 824 W/m² | - |
| 1777316968 | 20.56° C | 35% | 1021.8 hPa | 0 mm | - | 837 W/m² | - |
| 1777316666 | 20.56° C | 35% | 1021.8 hPa | 0 mm | - | 851 W/m² | - |
| 1777316362 | 20.56° C | 34% | 1021.7 hPa | 0 mm | - | 858 W/m² | - |
| 1777316060 | 20.56° C | 35% | 1021.6 hPa | 0 mm | - | 873 W/m² | - |
| 1777315758 | 20.56° C | 34% | 1022 hPa | 0 mm | - | 885 W/m² | - |
| 1777315455 | 21.11° C | 33% | 1021.7 hPa | 0 mm | - | 891 W/m² | - |
| 1777315153 | 20.56° C | 34% | 1021.7 hPa | 0 mm | - | 892 W/m² | - |
| 1777314849 | 20° C | 35% | 1022.1 hPa | 0 mm | - | 909 W/m² | - |
| 1777314545 | 20.56° C | 36% | 1022 hPa | 0 mm | - | 918 W/m² | - |
| 1777314242 | 20° C | 36% | 1022.2 hPa | 0 mm | - | 926 W/m² | - |
| 1777313940 | 20° C | 36% | 1022.5 hPa | 0 mm | - | 930 W/m² | - |
| 1777313637 | 20° C | 34% | 1022.5 hPa | 0 mm | - | 935 W/m² | - |
| 1777313335 | 20° C | 33% | 1022.4 hPa | 0 mm | - | 946 W/m² | - |
* Rain latest hour (hover to see other rain measurements)
** Current wind speed in m/s (hover to see current wind gust speed)